Volver al catálogo

STARLINK-11526

ActivoComunicacionesVLEO
NORAD 63007·PAYLOAD·🇺🇸 United States

Lanzado Feb 15, 2025 desde Cape Canaveral Space Force Station

Loading…

Próximos Pases (próximas 24 horas)

TLE

ActualizadoSource: CelesTrak SupGP

Época: Sep 15, 2026, 03:29 UTC

1 63007C 25032C   26258.14562500  .00122760  00000+0  95375-3 0  2581
2 63007  43.0004 132.9244 0001996 261.0524 156.3398 15.70770342    11

Sigue STARLINK-11526 en tiempo real con AllMySat

Download on the App Store